Stations météo

Publicité
Hurguada, Egypte (62463): Température de l'air & dewpoint: 14.06.2018 09:00:00 - 20.06.2018 09:00:00 (EET)Hurguada, Egypte (62463): Vitesse du vent: 14.06.2018 09:00:00 - 20.06.2018 09:00:00 (EET)Hurguada, Egypte (62463): Direction du vent: 14.06.2018 09:00:00 - 20.06.2018 09:00:00 (EET)Hurguada, Egypte (62463): reduced air pressure: 14.06.2018 09:00:00 - 20.06.2018 09:00:00 (EET)Hurguada, Egypte (62463): visibility: 14.06.2018 09:00:00 - 20.06.2018 09:00:00 (EET)
Date & Time tt [°C] td [°C] ff [km/h] ff [knt] dd ppp [hPa] vv [km]
20.06.2018 09:00:00 - - - - - - -
20.06.2018 08:00:00 31,5 14,2 16 9 N 1011,5 10
20.06.2018 07:00:00 - - - - - - -
20.06.2018 06:00:00 - - - - - - -
20.06.2018 05:00:00 - - - - - - -
20.06.2018 04:00:00 - - - - - - -
20.06.2018 03:00:00 - - - - - - -
20.06.2018 02:00:00 - - - - - - -
20.06.2018 01:00:00 - - - - - - -
20.06.2018 00:00:00 - - - - - - -
19.06.2018 23:00:00 32,2 4,1 11 6 W 1008,6 10
19.06.2018 22:00:00 - - - - - - -
19.06.2018 21:00:00 - - - - - - -
19.06.2018 20:00:00 35,5 5,8 4 2 NW 1007,6 10
19.06.2018 19:00:00 - - - - - - -
19.06.2018 18:00:00 - - - - - - -
19.06.2018 17:00:00 39,8 6,2 28 15 N 1006,3 10
19.06.2018 16:00:00 - - - - - - -
19.06.2018 15:00:00 - - - - - - -
19.06.2018 14:00:00 39,5 7,0 34 18 NNE 1006,7 10
19.06.2018 13:00:00 - - - - - - -
19.06.2018 12:00:00 - - - - - - -
19.06.2018 11:00:00 37,3 11,3 31 17 N 1008,0 10
19.06.2018 10:00:00 - - - - - - -
19.06.2018 09:00:00 - - - - - - -
19.06.2018 08:00:00 32,4 15,0 15 8 N 1008,4 10
19.06.2018 07:00:00 - - - - - - -
19.06.2018 06:00:00 - - - - - - -
19.06.2018 05:00:00 27,7 16,5 11 6 N 1007,2 10
19.06.2018 04:00:00 - - - - - - -
19.06.2018 03:00:00 - - 104 56 W - 17
19.06.2018 02:00:00 29,6 12,1 13 7 NW 1006,0 10
19.06.2018 01:00:00 - - - - - - -
19.06.2018 00:00:00 - - - - - - -
18.06.2018 23:00:00 31,8 6,8 13 7 NW 1006,1 10
18.06.2018 22:00:00 - - - - - - -
18.06.2018 21:00:00 - - - - - - -
18.06.2018 20:00:00 33,7 13,7 21 11 NNW 1005,1 10
18.06.2018 19:00:00 - - - - - - -
18.06.2018 18:00:00 - - - - - - -
18.06.2018 17:00:00 37,5 9,2 37 20 N 1004,1 10
18.06.2018 16:00:00 - - - - - - -
18.06.2018 15:00:00 - - - - - - -
18.06.2018 14:00:00 38,5 10,5 46 25 N 1004,3 10
18.06.2018 13:00:00 - - - - - - -
18.06.2018 12:00:00 - - - - - - -
18.06.2018 11:00:00 36,0 13,5 46 25 N 1006,1 10
18.06.2018 10:00:00 - - - - - - -
18.06.2018 09:00:00 - - - - - - -
18.06.2018 08:00:00 32,6 12,3 32 17 N 1007,0 10
18.06.2018 07:00:00 - - - - - - -
18.06.2018 06:00:00 - - - - - - -
18.06.2018 05:00:00 29,0 11,1 13 7 NNW 1006,4 10
18.06.2018 04:00:00 - - - - - - -
18.06.2018 03:00:00 - - - - - - -
18.06.2018 02:00:00 31,3 7,7 11 6 NNW 1005,7 10
18.06.2018 01:00:00 - - - - - - -
18.06.2018 00:00:00 - - - - - - -
17.06.2018 23:00:00 33,0 7,0 4 2 N 1006,7 10
17.06.2018 22:00:00 - - - - - - -
17.06.2018 21:00:00 - - - - - - -
17.06.2018 20:00:00 34,9 12,5 21 11 NNE 1006,2 10
17.06.2018 19:00:00 - - - - - - -
17.06.2018 18:00:00 - - - - - - -
17.06.2018 17:00:00 37,5 12,2 18 10 NNE 1005,7 10
17.06.2018 16:00:00 - - - - - - -
17.06.2018 15:00:00 - - - - - - -
17.06.2018 14:00:00 38,7 12,5 21 11 NNE 1006,9 10
17.06.2018 13:00:00 - - - - - - -
17.06.2018 12:00:00 - - - - - - -
17.06.2018 11:00:00 36,8 14,2 34 18 N 1008,5 10
17.06.2018 10:00:00 - - - - - - -
17.06.2018 09:00:00 - - - - - - -
17.06.2018 08:00:00 34,8 9,2 24 13 N 1008,9 10
17.06.2018 07:00:00 - - - - - - -
17.06.2018 06:00:00 - - - - - - -
17.06.2018 05:00:00 30,7 7,8 9 5 NNW 1007,9 10
17.06.2018 04:00:00 - - - - - - -
17.06.2018 03:00:00 - - - - - - -
17.06.2018 02:00:00 23,1 7,0 4 2 NW 1007,6 10
17.06.2018 01:00:00 - - - - - - -
17.06.2018 00:00:00 - - - - - - -
16.06.2018 23:00:00 33,4 14,9 24 13 NNW 1008,5 10
16.06.2018 22:00:00 - - - - - - -
16.06.2018 21:00:00 - - - - - - -
16.06.2018 20:00:00 33,9 19,9 8 4 ESE 1006,5 10
16.06.2018 19:00:00 - - - - - - -
16.06.2018 18:00:00 - - - - - - -
16.06.2018 17:00:00 40,7 4,5 9 5 SE 1006,6 10
16.06.2018 16:00:00 - - - - - - -
16.06.2018 15:00:00 - - - - - - -
16.06.2018 14:00:00 31,5 6,4 9 5 ESE 1007,8 10
16.06.2018 13:00:00 - - - - - - -
16.06.2018 12:00:00 - - - - - - -
16.06.2018 11:00:00 36,6 13,4 15 8 SE 1008,8 10
16.06.2018 10:00:00 - - - - - - -
16.06.2018 09:00:00 - - - - - - -
16.06.2018 08:00:00 34,8 9,2 4 2 ESE 1008,5 10
16.06.2018 07:00:00 - - - - - - -
16.06.2018 06:00:00 - - - - - - -
16.06.2018 05:00:00 26,6 4,4 0 0 N 1007,8 10
16.06.2018 04:00:00 - - - - - - -
16.06.2018 03:00:00 - - - - - - -
16.06.2018 02:00:00 29,0 8,6 8 4 N 1007,2 10
16.06.2018 01:00:00 - - - - - - -
16.06.2018 00:00:00 - - - - - - -
15.06.2018 23:00:00 29,7 18,2 4 2 W 1007,5 10
15.06.2018 22:00:00 - - - - - - -
15.06.2018 21:00:00 - - - - - - -
15.06.2018 20:00:00 31,0 19,0 0 0 N 1007,2 10
15.06.2018 19:00:00 - - - - - - -
15.06.2018 18:00:00 - - - - - - -
15.06.2018 17:00:00 34,5 18,4 13 7 SE 1006,6 10
15.06.2018 16:00:00 - - - - - - -
15.06.2018 15:00:00 - - - - - - -
15.06.2018 14:00:00 35,3 17,5 13 7 ESE 1007,7 10
15.06.2018 13:00:00 - - - - - - -
15.06.2018 12:00:00 - - - - - - -
15.06.2018 11:00:00 - - - - - - -
15.06.2018 10:00:00 - - - - - - -
15.06.2018 09:00:00 - - - - - - -
15.06.2018 08:00:00 32,6 11,2 21 11 N 1008,5 10
15.06.2018 07:00:00 - - - - - - -
15.06.2018 06:00:00 - - - - - - -
15.06.2018 05:00:00 27,8 9,1 9 5 NW 1006,6 10
15.06.2018 04:00:00 - - - - - - -
15.06.2018 03:00:00 - - - - - - -
15.06.2018 02:00:00 28,7 8,7 8 4 NNW 1006,0 10
15.06.2018 01:00:00 - - - - - - -
15.06.2018 00:00:00 - - - - - - -
14.06.2018 23:00:00 31,6 7,3 9 5 WSW 1006,1 10
14.06.2018 22:00:00 - - - - - - -
14.06.2018 21:00:00 - - - - - - -
14.06.2018 20:00:00 32,7 14,3 9 5 S 1005,9 10
14.06.2018 19:00:00 - - - - - - -
14.06.2018 18:00:00 - - - - - - -
14.06.2018 17:00:00 34,8 15,7 18 10 SE 1005,2 10
14.06.2018 16:00:00 - - - - - - -
14.06.2018 15:00:00 - - - - - - -
14.06.2018 14:00:00 35,8 17,0 21 11 ESE 1005,8 10
14.06.2018 13:00:00 - - - - - - -
14.06.2018 12:00:00 - - - - - - -
14.06.2018 11:00:00 36,7 13,5 13 7 E 1006,9 10
14.06.2018 10:00:00 - - - - - - -
14.06.2018 09:00:00 - - - - - - -

tt = Température de l'air
td = dewpoint
ff = Vitesse du vent
dd = Direction du vent
ppp = reduced air pressure
vv = visibility

stations d'obs. à proximité